[[{"header":{"parameterUnit":"m.s-1","parameterCategory":1,"la1":30.2991,"la2":30.254,"lo1":-89.0895,"lo2":-89.0444,"dx":0.0017,"dy":0.0017,"nx":28,"ny":28,"refTime":"2022-12-18T15:00:00:Z","depth":0,"parameterNumber":2,"parameterNumberName":"U-component_of_WINDS"},"data":[0,0,0,0,0,0,0,0,0,0,0,0,0,0,0,0,0,0,0,0,0,0,0,0,0,0,0,0,0,0,0,0,0,0,0,0,0,0,0,0,0,0,0,0,0,0,0,0,0,0,0,0,0,0,0,0,0,0,-6.4069,-6.407,0,-6.413,-6.4131,-6.4131,-6.3937,-6.3931,-6.3925,-6.392,-6.3984,-6.3991,-6.3998,0,0,0,0,0,0,0,0,0,0,0,0,0,-6.3787,-6.3793,-6.4069,-6.407,-6.4071,-6.413,-6.4131,-6.4131,-6.3938,-6.3931,-6.3924,-6.3917,-6.3982,-6.399,-6.3999,0,0,0,0,0,0,0,0,0,0,0,0,0,-6.3885,-6.3795,-6.4069,-6.3981,-6.3974,-6.413,-6.4131,-6.4132,-6.394,-6.3931,-6.3922,-6.3914,-6.3979,-6.3989,-6.4,-6.4244,0,0,-6.4033,-6.4038,0,0,0,0,0,0,0,0,-6.388,-6.3896,-6.3994,-6.3988,-6.398,-6.4017,-6.4054,-6.4169,-6.3942,-6.3953,-6.392,-6.3909,-6.4002,-6.401,-6.4041,-6.4246,-6.4249,-6.4034,-6.404,-6.4045,-6.4048,0,0,0,0,0,0,0,-6.3873,-6.3892,-6.4093,-6.3995,-6.3987,-6.3939,-6.3943,-6.4075,-6.4026,-6.3951,-6.3937,-6.3947,-6.3997,-6.4031,-6.4041,-6.425,-6.4034,-6.4043,-6.405,-6.4054,-6.4657,-6.4666,0,0,0,0,0,0,-6.3878,-6.3888,-6.4091,-6.4095,-6.3907,-6.3952,-6.3956,-6.4014,-6.4024,-6.4017,-6.3954,-6.3938,-6.4017,-6.4029,-6.4043,-6.4328,-6.4045,-6.4055,-6.4061,-6.4648,-6.4659,-6.467,0,0,0,0,0,0,-6.3872,-6.3898,-6.4089,-6.3988,-6.4008,-6.3966,-6.4032,-6.402,-6.4054,-6.4027,-6.4017,-6.3999,-6.4011,-6.4028,-6.4195,-6.4328,-6.406,-6.407,-6.4637,-6.4651,-6.4665,-6.4902,0,0,0,0,0,0,-6.3865,-6.3897,-6.3989,-6.3991,-6.4014,-6.424,-6.404,-6.4027,-6.4073,-6.4052,-6.4066,-6.406,-6.4005,-6.418,-6.4206,-6.4338,-6.4078,-6.4625,-6.4643,-6.466,-6.4882,-6.4923,-6.4958,0,0,0,0,0,-6.3856,-6.4054,-6.3995,-6.402,-6.4129,-6.4248,-6.4262,-6.4194,-6.4085,-6.4177,-6.4159,-6.4059,-6.4309,-6.4198,-6.4226,-6.4364,-6.4616,-6.4638,-6.4659,-6.4865,-6.4915,-6.4957,0,0,0,0,0,0,-6.407,-6.4053,-6.3987,-6.4192,-6.4223,-6.4215,-6.433,-6.4249,-6.4312,-6.429,-6.4203,-6.4208,-6.4391,-6.4393,-6.4271,-6.4599,-6.4444,-6.4472,-6.4591,-6.4638,-6.4675,-6.4671,-6.4087,0,0,0,0,0,-6.4141,-6.4239,-6.4219,-6.4402,-6.442,-6.4373,-6.4423,-6.4368,-6.4397,-6.4409,-6.4403,-6.4436,-6.4521,-6.458,-6.4657,-6.4881,-6.4882,-6.4989,-6.5027,-6.5058,-6.5084,-6.5202,-6.525,-6.474,-6.474,-6.474,0,0,-6.4289,-6.4291,-6.4359,-6.4445,-6.4462,-6.4566,-6.4385,-6.4503,-6.4579,-6.4427,-6.4584,-6.4582,-6.4612,-6.4809,-6.4895,-6.4817,-6.5224,-6.5086,-6.5111,-6.5119,-6.5229,-6.5278,-6.5321,-6.4755,-6.4752,-6.475,0,0,-6.4611,-6.4623,-6.4776,-6.4798,-6.4826,-6.4793,-6.483,-6.4835,-6.4827,-6.4983,-6.4871,-6.496,-6.511,-6.5136,-6.5169,-6.5501,-6.5411,-6.5528,-6.5725,-6.5842,-6.5882,-6.5917,-6.6036,-6.6079,-6.5553,-6.5554,-6.5554,0,-6.4792,-6.4943,-6.4866,-6.4991,-6.5032,-6.4898,-6.5053,-6.5077,-6.513,-6.5162,-6.5072,-6.5256,-6.5267,-6.5468,-6.5549,-6.558,-6.562,-6.5526,-6.5882,-6.5917,-6.5949,-6.6061,-6.6106,-6.5568,-6.5566,-6.5565,-6.5564,0,-6.5164,-6.5271,-6.5391,-6.5445,-6.5499,-6.5639,-6.5583,-6.5647,-6.5588,-6.5564,-6.5725,-6.5733,-6.5809,-6.5853,-6.5796,-6.6046,-6.5996,-6.5897,-6.5738,-6.6013,-6.6116,-6.6159,-6.5588,-6.5583,-6.5579,-6.5575,0,0,-6.5624,-6.5632,-6.5678,-6.57,-6.5721,-6.5803,-6.5936,-6.601,-6.6067,-6.6108,-6.6218,-6.6347,-6.6254,-6.6292,-6.6236,-6.6339,-6.6601,-6.6226,-6.6225,-6.6296,-6.6878,-6.6953,-6.7004,-6.6542,-6.655,-6.6556,-6.6875,0,-6.5942,-6.6169,-6.6103,-6.6332,-6.643,-6.6303,-6.6419,-6.6445,-6.6427,-6.6507,-6.6486,-6.6579,-6.6449,-6.6471,-6.6567,-6.6549,-6.6717,-6.6525,-6.6644,-6.6649,-6.6641,-6.7058,-6.7139,-6.744,-6.6915,-6.6922,-6.6927,0,-6.6343,-6.6398,-6.6637,-6.6641,-6.668,-6.6786,-6.6847,-6.6926,-6.6952,-6.6931,-6.6974,-6.6897,-6.7028,-6.6869,-6.7049,-6.692,-6.6964,-6.6963,-6.6973,-6.6982,-6.6805,-6.7079,-6.7534,-6.758,-6.699,-6.6985,-6.698,0,-6.6655,-6.679,-6.6949,-6.6973,-6.6982,-6.7059,-6.7066,-6.7084,-6.7132,-6.7187,-6.7217,-6.7287,-6.7325,-6.7381,-6.7325,-6.7214,-6.7514,-6.735,-6.7501,-6.7503,-6.757,-6.7567,-6.8039,-6.7599,-6.7598,-6.7597,-6.7596,0,-6.7017,-6.7168,-6.709,-6.7189,-6.7354,-6.7276,-6.7442,-6.7435,-6.7452,-6.7547,-6.7441,-6.7533,-6.7454,-6.7539,-6.7496,-6.7651,-6.7669,-6.7657,-6.7644,-6.7667,-6.7669,-6.7695,-6.7673,-6.7609,-6.7606,-6.7604,-6.7602,0,-6.7394,-6.7348,-6.7514,-6.7508,-6.751,-6.7633,-6.7628,-6.7719,-6.7692,-6.7814,-6.7838,-6.7797,-6.7891,-6.784,-6.7938,-6.7909,-6.8111,-6.8069,-6.8102,-6.8091,-6.8245,-6.8232,-6.8752,-6.8816,-6.8334,-6.8338,-6.8342,0,-6.7629,-6.7742,-6.7748,-6.7804,-6.7818,-6.7909,-6.7958,-6.7885,-6.794,-6.7979,-6.8066,-6.815,-6.8214,-6.8371,-6.835,-6.8424,-6.8383,-6.8561,-6.8394,-6.8414,-6.8387,-6.8381,-6.8392,-6.8595,-6.86,-6.8605,-6.8609,0,-6.805,-6.8021,-6.8094,-6.8161,-6.8221,-6.827,-6.831,-6.8362,-6.829,-6.8357,-6.8452,-6.8502,-6.86,-6.8686,-6.875,-6.8757,-6.8673,-6.8661,-6.87,-6.8725,-6.874,-6.8734,-6.8194,-6.865,-6.8645,-6.8642,-6.864,-6.8639,-6.8362,-6.8457,-6.8476,-6.8561,-6.8584,-6.8623,-6.8708,-6.8692,-6.8769,-6.8844,-6.8796,-6.8908,-6.893,-6.9007,-6.9026,-6.9112,-6.9041,-6.9098,-6.9112,-6.9127,-6.9148,-6.8725,-6.9123,-6.9122,-6.9121,-6.912,-6.9119,0,-6.8778,-6.8784,-6.8863,-6.8922,-6.899,-6.8902,-6.8941,-6.9004,-6.9103,-6.9131,-6.9196,-6.9305,-6.9387,-6.9373,-6.9447,-6.952,-6.9482,-6.9542,-6.9536,-6.9539,-6.9207,-6.9166,-6.9571,-6.957,-6.957,-6.957,-6.957,-6.957,-6.9002,-6.9158,-6.9131,-6.9296,-6.93,-6.9408,-6.9438,-6.9474,-6.9496,-6.9622,-6.969,-6.9679,-6.969,-6.9765,-6.9837,-6.983,-6.9863,-6.9938,-6.9917,-6.9607,-6.9563,-6.952,-6.9481,-6.9945,-6.9946,-7.0242,-7.0245,-7.0247]},{"header":{"parameterUnit":"m.s-1","parameterCategory":1,"la1":30.2991,"la2":30.254,"lo1":-89.0895,"lo2":-89.0444,"dx":0.0017,"dy":0.0017,"nx":28,"ny":28,"refTime":"2022-12-18T15:00:00:Z","depth":0,"parameterNumber":3,"parameterNumberName":"V-component_of_WINDS"},"data":[0,0,0,0,0,0,0,0,0,0,0,0,0,0,0,0,0,0,0,0,0,0,0,0,0,0,0,0,0,0,0,0,0,0,0,0,0,0,0,0,0,0,0,0,0,0,0,0,0,0,0,0,0,0,0,0,0,0,-2.0523,-2.0523,0,-2.0492,-2.0491,-2.0491,-2.0455,-2.0454,-2.0453,-2.0453,-2.0421,-2.042,-2.042,0,0,0,0,0,0,0,0,0,0,0,0,0,-2.055,-2.0549,-2.0523,-2.0523,-2.0522,-2.0492,-2.0491,-2.0491,-2.0455,-2.0454,-2.0453,-2.0453,-2.0421,-2.042,-2.042,0,0,0,0,0,0,0,0,0,0,0,0,0,-2.053,-2.0549,-2.0523,-2.0501,-2.0498,-2.0492,-2.0491,-2.0491,-2.0455,-2.0454,-2.0453,-2.0452,-2.0421,-2.0421,-2.042,-2.0434,0,0,-2.0418,-2.0418,0,0,0,0,0,0,0,0,-2.0531,-2.0529,-2.0504,-2.0502,-2.0499,-2.0476,-2.0489,-2.0472,-2.0455,-2.0471,-2.0453,-2.0452,-2.044,-2.0438,-2.0434,-2.0432,-2.0431,-2.0418,-2.0418,-2.0418,-2.0418,0,0,0,0,0,0,0,-2.0533,-2.053,-2.0511,-2.0504,-2.0501,-2.0491,-2.0488,-2.0485,-2.0461,-2.047,-2.0467,-2.0464,-2.0438,-2.0434,-2.0433,-2.043,-2.0418,-2.0418,-2.0418,-2.0417,-2.0435,-2.0436,0,0,0,0,0,0,-2.0538,-2.0532,-2.0512,-2.051,-2.0514,-2.0492,-2.0487,-2.0485,-2.0461,-2.0456,-2.0465,-2.0462,-2.0436,-2.0433,-2.0431,-2.0444,-2.0418,-2.0417,-2.0417,-2.0434,-2.0435,-2.0436,0,0,0,0,0,0,-2.0538,-2.0536,-2.0513,-2.052,-2.0516,-2.0492,-2.0489,-2.0484,-2.048,-2.0457,-2.0452,-2.0465,-2.0435,-2.0432,-2.0433,-2.0442,-2.0417,-2.0417,-2.0433,-2.0434,-2.0436,-2.047,0,0,0,0,0,0,-2.0539,-2.0537,-2.0542,-2.052,-2.0516,-2.0515,-2.049,-2.0484,-2.0479,-2.0476,-2.0456,-2.0452,-2.0434,-2.0434,-2.0432,-2.0441,-2.0416,-2.0432,-2.0434,-2.0435,-2.0467,-2.0472,-2.0475,0,0,0,0,0,-2.054,-2.0554,-2.0543,-2.054,-2.0522,-2.0516,-2.0513,-2.0493,-2.048,-2.0485,-2.0469,-2.0452,-2.0441,-2.0434,-2.0432,-2.0441,-2.0432,-2.0433,-2.0435,-2.0466,-2.0471,-2.0475,0,0,0,0,0,0,-2.0578,-2.055,-2.0538,-2.0545,-2.0533,-2.051,-2.0515,-2.05,-2.0491,-2.0488,-2.0463,-2.0459,-2.0462,-2.0451,-2.0444,-2.0451,-2.0434,-2.0435,-2.0458,-2.0463,-2.0466,-2.0468,-2.0416,0,0,0,0,0,-2.0586,-2.0584,-2.056,-2.0568,-2.0563,-2.054,-2.0537,-2.0522,-2.0508,-2.0503,-2.0488,-2.0476,-2.0469,-2.0465,-2.0458,-2.0466,-2.046,-2.0471,-2.0475,-2.0478,-2.0479,-2.048,-2.0484,-2.0442,-2.0442,-2.0442,0,0,-2.0605,-2.059,-2.059,-2.0575,-2.0564,-2.0561,-2.0536,-2.0535,-2.0532,-2.0503,-2.0502,-2.049,-2.0475,-2.0478,-2.0479,-2.0469,-2.049,-2.048,-2.0483,-2.0483,-2.0482,-2.0486,-2.049,-2.0443,-2.0443,-2.0442,0,0,-2.0637,-2.0626,-2.063,-2.0619,-2.0603,-2.0587,-2.0588,-2.0567,-2.0558,-2.0557,-2.0534,-2.053,-2.052,-2.0509,-2.0502,-2.0528,-2.0511,-2.0526,-2.0547,-2.0548,-2.0551,-2.0554,-2.0561,-2.0564,-2.0528,-2.0528,-2.0528,0,-2.0662,-2.0657,-2.0634,-2.0633,-2.0627,-2.06,-2.0603,-2.0594,-2.0576,-2.0572,-2.0562,-2.0547,-2.0535,-2.0534,-2.054,-2.0536,-2.0535,-2.0528,-2.0553,-2.0555,-2.0557,-2.0564,-2.0567,-2.053,-2.053,-2.0529,-2.0529,0,-2.0687,-2.0684,-2.0689,-2.0672,-2.0666,-2.0667,-2.0644,-2.0641,-2.0626,-2.0611,-2.0609,-2.0593,-2.0581,-2.058,-2.0566,-2.0577,-2.0571,-2.0557,-2.0539,-2.0564,-2.0569,-2.0572,-2.0532,-2.0532,-2.0531,-2.0531,0,0,-2.0742,-2.0711,-2.0713,-2.0704,-2.0683,-2.068,-2.0679,-2.0667,-2.0664,-2.0652,-2.065,-2.0641,-2.0627,-2.0619,-2.0603,-2.0605,-2.0623,-2.059,-2.0589,-2.0595,-2.0631,-2.0641,-2.0645,-2.0612,-2.0612,-2.0613,-2.0632,0,-2.0769,-2.0766,-2.0745,-2.0748,-2.0744,-2.0717,-2.0716,-2.0703,-2.0689,-2.0682,-2.0666,-2.066,-2.0643,-2.0638,-2.0638,-2.0621,-2.063,-2.0619,-2.0608,-2.0608,-2.0612,-2.0648,-2.0659,-2.0678,-2.0634,-2.0635,-2.0635,0,-2.08,-2.0789,-2.0791,-2.0768,-2.0765,-2.0765,-2.0751,-2.0746,-2.0729,-2.0719,-2.0709,-2.0691,-2.0687,-2.0671,-2.0665,-2.0658,-2.0652,-2.0643,-2.0643,-2.064,-2.0622,-2.0645,-2.0684,-2.0686,-2.0639,-2.0638,-2.0638,0,-2.0837,-2.0823,-2.0822,-2.0815,-2.0789,-2.0789,-2.0778,-2.0761,-2.0754,-2.0742,-2.0737,-2.0725,-2.0718,-2.0708,-2.0686,-2.0677,-2.0682,-2.0664,-2.0672,-2.0672,-2.0674,-2.0674,-2.0711,-2.0672,-2.0672,-2.0672,-2.0672,0,-2.0869,-2.0871,-2.0838,-2.0838,-2.0838,-2.0814,-2.0815,-2.0802,-2.0786,-2.0781,-2.0758,-2.0754,-2.0726,-2.0719,-2.0702,-2.0698,-2.0696,-2.0686,-2.0681,-2.0687,-2.0688,-2.0682,-2.068,-2.0673,-2.0673,-2.0672,-2.0672,0,-2.091,-2.0889,-2.0886,-2.0861,-2.0854,-2.0856,-2.0834,-2.0831,-2.0815,-2.0809,-2.0807,-2.0781,-2.0771,-2.0748,-2.0732,-2.0721,-2.0721,-2.0713,-2.0726,-2.0723,-2.0731,-2.073,-2.0765,-2.0767,-2.0729,-2.0729,-2.0729,0,-2.0931,-2.0932,-2.0906,-2.0901,-2.0891,-2.0884,-2.0876,-2.0852,-2.0845,-2.0825,-2.0825,-2.0812,-2.0801,-2.0786,-2.0765,-2.0752,-2.0743,-2.0756,-2.0741,-2.0746,-2.0741,-2.0741,-2.074,-2.0759,-2.076,-2.076,-2.0761,0,-2.097,-2.0959,-2.0949,-2.0935,-2.0927,-2.0915,-2.0902,-2.0899,-2.0871,-2.0865,-2.0854,-2.0845,-2.0827,-2.0815,-2.0798,-2.0786,-2.0768,-2.0766,-2.0766,-2.0772,-2.0779,-2.0773,-2.0734,-2.0765,-2.0764,-2.0764,-2.0764,-2.0764,-2.1,-2.0999,-2.098,-2.097,-2.0957,-2.0945,-2.0941,-2.0923,-2.0914,-2.0898,-2.0884,-2.0873,-2.0854,-2.083,-2.0819,-2.081,-2.0801,-2.0803,-2.0803,-2.0803,-2.0805,-2.0781,-2.0807,-2.0807,-2.0807,-2.0807,-2.0806,0,-2.1036,-2.1022,-2.1013,-2.0995,-2.0986,-2.097,-2.0954,-2.0948,-2.0939,-2.0923,-2.0912,-2.0898,-2.0885,-2.0864,-2.0849,-2.0845,-2.0837,-2.0842,-2.0841,-2.0838,-2.0815,-2.0815,-2.0849,-2.0849,-2.0849,-2.0849,-2.0849,-2.0849,-2.1054,-2.105,-2.1036,-2.1025,-2.1011,-2.1,-2.0992,-2.098,-2.0967,-2.0953,-2.0942,-2.0928,-2.0909,-2.0892,-2.0879,-2.0873,-2.0868,-2.0875,-2.0867,-2.0845,-2.084,-2.0837,-2.0836,-2.0875,-2.0875,-2.0891,-2.0891,-2.0891]}]]